Weather in Tallinn

Estonia     59˚26′14″N   24˚44′42″E
temp.,
°C
wind,
m/s
gust,
m/s
humid.,
%
clouds,
%
prec.,
mm/h
press.,
hPa
HPBL,
m
27 november, fri
fri2723:00+5˚nnw68740 0.0 1007666
02:00+3˚nnw78770 0.0 1008762
05:00+2˚n6876100 0.1 1009980
08:00+2˚n8976100 0.2 10101044
11:00+2˚n81080100 0.2 1011990
14:00+2˚nne81084100 0.4 1013981
17:00+2˚nne81195100 0.6 1014768
20:00+4˚ene8117896 0.9 1017941
28 november, sat
sat2823:00+5˚ne9118196 0.3 1019897
02:00+4˚ne897998 0.4 1021913
05:00+3˚ne8980100 0.1 1022922
08:00+3˚ne8987100 0.3 1024692
11:00+4˚ne91183100 0.2 1025871
14:00+4˚ene8107898 0.3 10261034
17:00+4˚ene7978100 0.1 1026968
20:00+4˚ene7979100 0.2 1027981
29 november, sun
sun2923:00+3˚ene6883100 0.2 1027820
02:00+2˚e4686100 0.4 1028566
05:00+1˚ese3588100 0.2 1027402
08:00+1˚ese4584100 0.2 1028542
11:00+1˚ese458198 0.1 1028532
14:00+1˚ese458362 0.1 1027427
17:00ese458838 0.0 1026400
20:00+1˚se237868 0.0 1026600
30 november, mon
mon3023:00+1˚ene1374100 0.0 1025462
02:00+2˚e358095 0.0 1024496
05:00+2˚ene568873 0.0 1022407
08:00+3˚ne569787 0.5 1021329
11:00+3˚ne3497100 1.4 1019251
14:00+2˚nne2297100 2.9 1017184
17:00+3˚nw4597100 1.2 1016308
20:00+2˚wsw3491100 1.6 1016393
1 december, tue
tue123:00+1˚s598668 0.1 1015368
02:00+2˚s6109781 0.3 1014430
05:00+3˚s61096100 1.4 1014554
08:00+4˚s81293100 2.0 1014637
11:00+2˚sse91393100 0.9 1015497
14:00+5˚s81291100 2.7 1016666
17:00+5˚s81290100 0.9 1019723
20:00+4˚s81189100 1.3 1021604